Погода в Чистопольском

Россия / Саратовская область     51°44′16″N   48°52′08″E
темп.,
°C
ветер,
м/с
пор.,
м/с
влажн.,
%
обл.,
%
осадки,
мм/ч
давл.,
гПа
погр.,
м
18 мая, вт
вт1801:00+20вюв48360 0.0 1015107
04:00+19вюв510360 0.0 1015145
07:00+21вюв511400 0.0 1014228
10:00+28юв68310 0.0 1014536
13:00+32юв89181 0.0 10143646
16:00+32юв78205 0.0 10133760
19:00+29юв48300 0.0 1013199
22:00+23в45350 0.0 101366
19 мая, ср
ср1901:00+21вюв5103977 0.0 1012142
04:00+19вюв5113966 0.0 1012164
07:00+21в5114465 0.0 1012236
10:00+27вюв79323 0.0 1012641
13:00+31вюв78242 0.0 10122761
16:00+32юв77226 0.0 10113478
19:00+27вюв5113598 0.0 1011291
22:00+24вюв917420 0.0 1012547
20 мая, чт
чт2001:00+22вюв917520 0.0 1012624
04:00+20юв817571 0.0 1013579
07:00+20юв8146277 0.0 1013669
10:00+23ююв894923 0.0 10141145
13:00+25ююв6746100 0.0 10131808
16:00+21юз6664100 2.6 1012754
19:00+17зсз467880 5.6 1014345
22:00+16з2385100 7.2 1014140
21 мая, пт
пт2101:00+16зюз2284100 0.1 101473
04:00+15юз3583100 0.1 1014138
07:00+15зюз57760 0.0 1015360
10:00+20зюз68560 0.0 10151373
13:00+22зюз81046100 0.0 10162229
16:00+23з794084 0.0 10162245
19:00+22з58478 0.0 1016433
22:00+18юз3358100 0.0 101831
22 мая, сб
сб2201:00+17зюз336716 0.0 101834
04:00+15ссв117212 0.0 101911
07:00+19всв116388 0.0 102092
10:00+23юв224770 0.0 1020982
13:00+26ююв333927 0.0 10201575
16:00+28юв33365 0.0 10191991
19:00+26юв3545100 0.0 1019162
22:00+22ююв455297 0.0 101963